sat.trackr.live / text

‹ back to catalog

STARLINK-32667

NORAD 62201 · 2024-229K

PAYLOAD ACTIVE UNKNOWN

§ Identity

Operator
Country
US
Launch date
2024-12-04
Launch site
AFETR
Launch vehicle
Mass (kg)
RCS (m²)

Purposes: comms

External: N2YO · Heavens-Above · Gunter

§ Orbital elements

Epoch: 2026-09-21T09:03:27.406656Z

Period
94.27 min
Inclination
43.0013°
Eccentricity
0.0001576
Mean motion
15.27594118 rev/d
Perigee alt
481.9 km
Apogee alt
484.1 km
Semi-major
6,861.1 km
B*
3.6715e-4
RAAN
245.1982°
Arg perigee
268.7981°
Mean anomaly
91.2690°
Rev number
10,049

§ Raw data

STARLINK-326671 62201U 24229K   26264.37740054  .00009859  00000+0  36715-3 0  99952 62201  43.0013 245.1982 0001576 268.7981  91.2690 15.27594118100499

JSON: /api/v1/satellites/62201 · /tle

For live sub-satellite position, see the globe view (requires WebGL).

§ Visibility from observer

Set your observer location to see the next 7 days of passes ≥ 10°. The values pass through the URL so the page stays shareable.

No JS? Fill the form by hand. The geolocation button needs JavaScript.